TimePST,TemperatureF,Dew PointF,Humidity,Sea Level PressureIn,VisibilityMPH,Wind Direction,Wind SpeedMPH,Gust SpeedMPH,PrecipitationIn,Events,Conditions,WindDirDegrees,DateUTC
12:52 AM,3.0,-0.9,84,30.23,-9999.0,SSW,4.6,-,N/A,,Unknown,210,2013-01-12 08:52:00
1:52 AM,3.0,-2.0,80,30.24,-9999.0,SE,9.2,-,N/A,,Unknown,140,2013-01-12 09:52:00
2:52 AM,3.9,-0.0,84,30.24,-9999.0,SE,4.6,-,N/A,,Unknown,140,2013-01-12 10:52:00
3:52 AM,-0.9,-6.0,79,30.25,-9999.0,South,3.5,-,N/A,,Unknown,190,2013-01-12 11:52:00
4:52 AM,-0.0,-5.1,79,30.26,-9999.0,South,5.8,-,N/A,,Unknown,170,2013-01-12 12:52:00
5:52 AM,-2.0,-7.1,79,30.28,-9999.0,SSE,9.2,-,N/A,,Unknown,150,2013-01-12 13:52:00
6:52 AM,-5.1,-9.9,80,30.30,-9999.0,SSW,4.6,-,N/A,,Unknown,200,2013-01-12 14:52:00
7:52 AM,-0.0,-5.1,79,30.31,-9999.0,SSE,6.9,-,N/A,,Unknown,150,2013-01-12 15:52:00
8:52 AM,7.0,1.0,77,30.31,-9999.0,Calm,Calm,-,N/A,,Unknown,0,2013-01-12 16:52:00
9:52 AM,12.0,3.0,67,30.29,-9999.0,SE,3.5,-,N/A,,Unknown,130,2013-01-12 17:52:00
10:52 AM,15.1,6.1,68,30.29,-9999.0,SE,5.8,-,N/A,,Unknown,130,2013-01-12 18:52:00
11:52 AM,18.0,7.0,62,30.27,-9999.0,SE,6.9,-,N/A,,Unknown,140,2013-01-12 19:52:00
12:52 PM,19.0,9.0,65,30.28,-9999.0,SE,5.8,-,N/A,,Unknown,130,2013-01-12 20:52:00
1:52 PM,19.0,9.0,65,30.28,-9999.0,SE,8.1,-,N/A,,Unknown,130,2013-01-12 21:52:00
2:52 PM,17.1,7.0,65,30.28,-9999.0,SE,10.4,-,N/A,,Unknown,140,2013-01-12 22:52:00
3:52 PM,12.9,5.0,71,30.31,-9999.0,SE,11.5,-,N/A,,Unknown,140,2013-01-12 23:52:00
4:52 PM,10.9,3.0,70,30.31,-9999.0,SE,13.8,-,N/A,,Unknown,130,2013-01-13 00:52:00
5:52 PM,9.0,1.9,73,30.33,-9999.0,SE,13.8,-,N/A,,Unknown,130,2013-01-13 01:52:00
6:52 PM,8.1,1.0,73,30.36,-9999.0,SE,11.5,-,N/A,,Unknown,130,2013-01-13 02:52:00
7:52 PM,3.9,-0.9,80,30.36,-9999.0,East,5.8,-,N/A,,Unknown,90,2013-01-13 03:52:00
8:52 PM,-0.9,-5.1,83,30.37,-9999.0,Calm,Calm,-,N/A,,Unknown,0,2013-01-13 04:52:00
9:52 PM,1.0,-4.0,79,30.36,-9999.0,South,6.9,-,N/A,,Unknown,180,2013-01-13 05:52:00
10:52 PM,5.0,-0.0,80,30.34,-9999.0,South,5.8,-,N/A,,Unknown,170,2013-01-13 06:52:00
11:52 PM,5.0,-0.0,80,30.32,-9999.0,South,4.6,-,N/A,,Unknown,190,2013-01-13 07:52:00